This is the latest recevied weather packets stored in our database for station/object K5KVN. If no packets are shown the sender has not sent any weather packets the latest 10 day(s).
| Time | Temp. | Humidity | Pressure | Rain* | Wind** | Luminosity | Snow |
|---|---|---|---|---|---|---|---|
| 1788374716 | 36.67° C | 42% | 1017.2 hPa | 0 mm | - | - | - |
| 1788374116 | 37.22° C | 43% | 1017.4 hPa | 0 mm | - | - | - |
| 1788373515 | 36.67° C | 43% | 1017.4 hPa | 0 mm | - | - | - |
| 1788372913 | 36.67° C | 44% | 1017.9 hPa | 0 mm | - | - | - |
| 1788372313 | 36.67° C | 47% | 1018 hPa | 0 mm | - | - | - |
| 1788371712 | 36.11° C | 46% | 1018.2 hPa | 0 mm | - | - | - |
| 1788371111 | 36.11° C | 46% | 1018.3 hPa | 0 mm | - | - | - |
| 1788370508 | 35.56° C | 48% | 1018.5 hPa | 0 mm | - | - | - |
| 1788369969 | 35° C | 48% | 1018.7 hPa | 0 mm | - | - | - |
| 1788369328 | 35.56° C | 49% | 1018.8 hPa | 0 mm | - | - | - |
| 1788368709 | 34.44° C | 49% | 1018.9 hPa | 0 mm | - | - | - |
| 1788368108 | 35° C | 50% | 1019.1 hPa | 0 mm | - | - | - |
| 1788367506 | 34.44° C | 51% | 1019.1 hPa | 0 mm | - | - | - |
| 1788366908 | 33.89° C | 51% | 1019.2 hPa | 0 mm | - | - | - |
| 1788366308 | 33.89° C | 51% | 1019.2 hPa | 0 mm | - | - | - |
| 1788365768 | 33.89° C | 53% | 1019.3 hPa | 0 mm | - | - | - |
| 1788365107 | 33.33° C | 56% | 1019.4 hPa | 0 mm | - | - | - |
| 1788364508 | 33.33° C | 56% | 1019.4 hPa | 0 mm | - | - | - |
| 1788363908 | 33.33° C | 56% | 1019.4 hPa | 0 mm | - | - | - |
| 1788363307 | 32.22° C | 57% | 1019.5 hPa | 0 mm | - | - | - |
| 1788362706 | 32.22° C | 60% | 1019.5 hPa | 0 mm | - | - | - |
| 1788362166 | 31.67° C | 60% | 1019.4 hPa | 0 mm | - | - | - |
| 1788361504 | 31.11° C | 60% | 1019.4 hPa | 0 mm | - | - | - |
| 1788360904 | 30.56° C | 63% | 1019.4 hPa | 0 mm | - | - | - |
| 1788360305 | 30° C | 64% | 1019.4 hPa | 0 mm | - | - | - |
* Rain latest hour (hover to see other rain measurements)
** Current wind speed in m/s (hover to see current wind gust speed)